User: anonymous   Login
Location: Juzet
(42.9779°N, 0.7597°E)
Time: 12:48:08
(UTC+00:00)
Language:

Cosmos 1184 Rocket - Orbit

View from above orbital plane
View from above orbital plane
View from above satellite
View from above satellite

Ground track
Ground track

The orbit data is extracted from the following two-line orbital elements,

1 11822U 80044B   20274.94666637  .00005084  00000-0  87205-4 0  9995
2 11822  81.2312 204.9911 0011949  56.3407 303.8979 15.50854819218644
Epoch (UTC): 30 September 2020 22:43:11
Eccentricity: 0.0011949
inclination: 81.2312°
perigee height: 406 km
apogee height: 422 km
right ascension of ascending node: 204.9911°
argument of perigee: 56.3407°
revolutions per day: 15.50854819
mean anomaly at epoch: 303.8979°
orbit number at epoch: 21864

The dashed part of the orbit path shows where the satellite is in the earth's shadow,  

DLR